Year,Month,Day,Hour,Minute,Value (Times are PST for temperature in C)
2017,05,26,00,00,13.60
2017,05,26,00,01,13.60
2017,05,26,00,02,13.50
2017,05,26,00,03,13.50
2017,05,26,00,04,13.50
2017,05,26,00,05,13.50
2017,05,26,00,06,13.50
2017,05,26,00,07,13.40
2017,05,26,00,08,13.40
2017,05,26,00,09,13.40
2017,05,26,00,10,13.30
2017,05,26,00,11,13.30
2017,05,26,00,12,13.30
2017,05,26,00,13,13.30
2017,05,26,00,14,13.30
2017,05,26,00,15,13.20
2017,05,26,00,16,13.20
2017,05,26,00,17,13.20
2017,05,26,00,18,13.10
2017,05,26,00,19,13.10
2017,05,26,00,20,13.10
2017,05,26,00,21,13.00
2017,05,26,00,22,13.00
2017,05,26,00,23,13.00
2017,05,26,00,24,13.00
2017,05,26,00,25,13.00
2017,05,26,00,26,13.00
2017,05,26,00,27,12.90
2017,05,26,00,28,12.90
2017,05,26,00,29,12.90
2017,05,26,00,30,12.80
2017,05,26,00,31,12.80
2017,05,26,00,32,12.80
2017,05,26,00,33,12.80
2017,05,26,00,34,12.80
2017,05,26,00,35,12.80
2017,05,26,00,36,12.80
2017,05,26,00,37,12.80
2017,05,26,00,38,12.80
2017,05,26,00,39,12.80
2017,05,26,00,40,12.80
2017,05,26,00,41,12.90
2017,05,26,00,42,12.90
2017,05,26,00,43,12.90
2017,05,26,00,44,12.90
2017,05,26,00,45,12.90
2017,05,26,00,46,12.90
2017,05,26,00,47,12.90
2017,05,26,00,48,13.00
2017,05,26,00,49,13.00
2017,05,26,00,50,13.00
2017,05,26,00,51,13.00
2017,05,26,00,52,13.00
2017,05,26,00,53,13.00
2017,05,26,00,54,13.00
2017,05,26,00,55,13.00
2017,05,26,00,56,13.00
2017,05,26,00,57,13.00
2017,05,26,00,58,13.00
2017,05,26,00,59,13.00
2017,05,26,01,00,12.90
2017,05,26,01,01,12.90
2017,05,26,01,02,12.90
2017,05,26,01,03,12.90
2017,05,26,01,04,12.90
2017,05,26,01,05,12.90
2017,05,26,01,06,12.90
2017,05,26,01,07,12.90
2017,05,26,01,08,12.90
2017,05,26,01,09,12.80
2017,05,26,01,10,12.80
2017,05,26,01,11,12.80
2017,05,26,01,12,12.80
2017,05,26,01,13,12.80
2017,05,26,01,14,12.80
2017,05,26,01,15,12.80
2017,05,26,01,16,12.80
2017,05,26,01,17,12.80
2017,05,26,01,18,12.80
2017,05,26,01,19,12.80
2017,05,26,01,20,12.80
2017,05,26,01,21,12.80
2017,05,26,01,22,12.80
2017,05,26,01,23,12.80
2017,05,26,01,24,12.80
2017,05,26,01,25,12.70
2017,05,26,01,26,12.70
2017,05,26,01,27,12.60
2017,05,26,01,28,12.60
2017,05,26,01,29,12.60
2017,05,26,01,30,12.50
2017,05,26,01,31,12.50
2017,05,26,01,32,12.50
2017,05,26,01,33,12.40
2017,05,26,01,34,12.40
2017,05,26,01,35,12.40
2017,05,26,01,36,12.30
2017,05,26,01,37,12.30
2017,05,26,01,38,12.30
2017,05,26,01,39,12.30
2017,05,26,01,40,12.30
2017,05,26,01,41,12.30
2017,05,26,01,42,12.30
2017,05,26,01,43,12.30
2017,05,26,01,44,12.20
2017,05,26,01,45,12.20
2017,05,26,01,46,12.20
2017,05,26,01,47,12.10
2017,05,26,01,48,12.10
2017,05,26,01,49,12.10
2017,05,26,01,50,12.10
2017,05,26,01,51,12.00
2017,05,26,01,52,12.00
2017,05,26,01,53,12.00
2017,05,26,01,54,12.00
2017,05,26,01,55,11.90
2017,05,26,01,56,11.90
2017,05,26,01,57,11.90
2017,05,26,01,58,11.90
2017,05,26,01,59,11.90
2017,05,26,02,00,11.80
2017,05,26,02,01,11.80
2017,05,26,02,02,11.80
2017,05,26,02,03,11.80
2017,05,26,02,04,11.80
2017,05,26,02,05,11.80
2017,05,26,02,06,11.80
2017,05,26,02,07,11.80
2017,05,26,02,08,11.80
2017,05,26,02,09,11.80
2017,05,26,02,10,11.70
2017,05,26,02,11,11.70
2017,05,26,02,12,11.70
2017,05,26,02,13,11.70
2017,05,26,02,14,11.60
2017,05,26,02,15,11.60
2017,05,26,02,16,11.60
2017,05,26,02,17,11.60
2017,05,26,02,18,11.60
2017,05,26,02,19,11.60
2017,05,26,02,20,11.60
2017,05,26,02,21,11.60
2017,05,26,02,22,11.60
2017,05,26,02,23,11.60
2017,05,26,02,24,11.60
2017,05,26,02,25,11.60
2017,05,26,02,26,11.50
2017,05,26,02,27,11.40
2017,05,26,02,28,11.40
2017,05,26,02,29,11.40
2017,05,26,02,30,11.40
2017,05,26,02,31,11.40
2017,05,26,02,32,11.40
2017,05,26,02,33,11.30
2017,05,26,02,34,11.30
2017,05,26,02,35,11.30
2017,05,26,02,36,11.30
2017,05,26,02,37,11.30
2017,05,26,02,38,11.20
2017,05,26,02,39,11.20
2017,05,26,02,40,11.20
2017,05,26,02,41,11.20
2017,05,26,02,42,11.10
2017,05,26,02,43,11.10
2017,05,26,02,44,11.10
2017,05,26,02,45,11.10
2017,05,26,02,46,11.10
2017,05,26,02,47,11.10
2017,05,26,02,48,11.10
2017,05,26,02,49,11.10
2017,05,26,02,50,11.10
2017,05,26,02,51,11.10
2017,05,26,02,52,11.00
2017,05,26,02,53,10.90
2017,05,26,02,54,10.90
2017,05,26,02,55,10.90
2017,05,26,02,56,10.90
2017,05,26,02,57,10.90
2017,05,26,02,58,10.90
2017,05,26,02,59,10.90
2017,05,26,03,00,10.90
2017,05,26,03,01,10.80
2017,05,26,03,02,10.80
2017,05,26,03,03,10.80
2017,05,26,03,04,10.80
2017,05,26,03,05,10.80
2017,05,26,03,06,10.70
2017,05,26,03,07,10.70
2017,05,26,03,08,10.70
2017,05,26,03,09,10.70
2017,05,26,03,10,10.70
2017,05,26,03,11,10.70
2017,05,26,03,12,10.60
2017,05,26,03,13,10.60
2017,05,26,03,14,10.60
2017,05,26,03,15,10.60
2017,05,26,03,16,10.60
2017,05,26,03,17,10.60
2017,05,26,03,18,10.60
2017,05,26,03,19,10.60
2017,05,26,03,20,10.60
2017,05,26,03,21,10.50
2017,05,26,03,22,10.40
2017,05,26,03,23,10.40
2017,05,26,03,24,10.40
2017,05,26,03,25,10.40
2017,05,26,03,26,10.40
2017,05,26,03,27,10.40
2017,05,26,03,28,10.40
2017,05,26,03,29,10.40
2017,05,26,03,30,10.40
2017,05,26,03,31,10.40
2017,05,26,03,32,10.30
2017,05,26,03,33,10.30
2017,05,26,03,34,10.30
2017,05,26,03,35,10.30
2017,05,26,03,36,10.20
2017,05,26,03,37,10.20
2017,05,26,03,38,10.20
2017,05,26,03,39,10.20
2017,05,26,03,40,10.20
2017,05,26,03,41,10.20
2017,05,26,03,42,10.20
2017,05,26,03,43,10.20
2017,05,26,03,44,10.20
2017,05,26,03,45,10.20
2017,05,26,03,46,10.10
2017,05,26,03,47,10.10
2017,05,26,03,48,10.10
2017,05,26,03,49,10.10
2017,05,26,03,50,10.10
2017,05,26,03,51,10.10
2017,05,26,03,52,10.10
2017,05,26,03,53,10.10
2017,05,26,03,54,10.10
2017,05,26,03,55,10.10
2017,05,26,03,56,10.10
2017,05,26,03,57,10.10
2017,05,26,03,58,10.10
2017,05,26,03,59,10.00
2017,05,26,04,00,9.90
2017,05,26,04,01,9.90
2017,05,26,04,02,9.90
2017,05,26,04,03,9.90
2017,05,26,04,04,9.90
2017,05,26,04,05,9.90
2017,05,26,04,06,9.90
2017,05,26,04,07,9.90
2017,05,26,04,08,9.90
2017,05,26,04,09,9.90
2017,05,26,04,10,9.90
2017,05,26,04,11,9.90
2017,05,26,04,12,9.90
2017,05,26,04,13,9.80
2017,05,26,04,14,9.80
2017,05,26,04,15,9.80
2017,05,26,04,16,9.80
2017,05,26,04,17,9.80
2017,05,26,04,18,9.80
2017,05,26,04,19,9.80
2017,05,26,04,20,9.80
2017,05,26,04,21,9.80
2017,05,26,04,22,9.80
2017,05,26,04,23,9.70
2017,05,26,04,24,9.70
2017,05,26,04,25,9.70
2017,05,26,04,26,9.70
2017,05,26,04,27,9.70
2017,05,26,04,28,9.70
2017,05,26,04,29,9.70
2017,05,26,04,30,9.70
2017,05,26,04,31,9.70
2017,05,26,04,32,9.70
2017,05,26,04,33,9.70
2017,05,26,04,34,9.70
2017,05,26,04,35,9.70
2017,05,26,04,36,9.70
2017,05,26,04,37,9.70
2017,05,26,04,38,9.70
2017,05,26,04,39,9.70
2017,05,26,04,40,9.70
2017,05,26,04,41,9.60
2017,05,26,04,42,9.60
2017,05,26,04,43,9.60
2017,05,26,04,44,9.60
2017,05,26,04,45,9.60
2017,05,26,04,46,9.60
2017,05,26,04,47,9.60
2017,05,26,04,48,9.60
2017,05,26,04,49,9.50
2017,05,26,04,50,9.50
2017,05,26,04,51,9.50
2017,05,26,04,52,9.40
2017,05,26,04,53,9.40
2017,05,26,04,54,9.40
2017,05,26,04,55,9.40
2017,05,26,04,56,9.40
2017,05,26,04,57,9.30
2017,05,26,04,58,9.30
2017,05,26,04,59,9.30
2017,05,26,05,00,9.30
2017,05,26,05,01,9.30
2017,05,26,05,02,9.20
2017,05,26,05,03,9.20
2017,05,26,05,04,9.20
2017,05,26,05,05,9.20
2017,05,26,05,06,9.20
2017,05,26,05,07,9.20
2017,05,26,05,08,9.20
2017,05,26,05,09,9.20
2017,05,26,05,10,9.20
2017,05,26,05,11,9.20
2017,05,26,05,12,9.20
2017,05,26,05,13,9.20
2017,05,26,05,14,9.20
2017,05,26,05,15,9.20
2017,05,26,05,16,9.20
2017,05,26,05,17,9.20
2017,05,26,05,18,9.20
2017,05,26,05,19,9.20
2017,05,26,05,20,9.20
2017,05,26,05,21,9.20
2017,05,26,05,22,9.20
2017,05,26,05,23,9.20
2017,05,26,05,24,9.10
2017,05,26,05,25,9.10
2017,05,26,05,26,9.10
2017,05,26,05,27,9.10
2017,05,26,05,28,9.10
2017,05,26,05,29,9.00
2017,05,26,05,30,9.00
2017,05,26,05,31,9.00
2017,05,26,05,32,9.00
2017,05,26,05,33,9.00
2017,05,26,05,34,9.00
2017,05,26,05,35,9.00
2017,05,26,05,36,9.00
2017,05,26,05,37,9.00
2017,05,26,05,38,8.90
2017,05,26,05,39,8.90
2017,05,26,05,40,8.90
2017,05,26,05,41,8.90
2017,05,26,05,42,8.90
2017,05,26,05,43,8.90
2017,05,26,05,44,8.90
2017,05,26,05,45,8.90
2017,05,26,05,46,8.90
2017,05,26,05,47,8.90
2017,05,26,05,48,8.80
2017,05,26,05,49,8.80
2017,05,26,05,50,8.80
2017,05,26,05,51,8.80
2017,05,26,05,52,8.80
2017,05,26,05,53,8.80
2017,05,26,05,54,8.80
2017,05,26,05,55,8.80
2017,05,26,05,56,8.80
2017,05,26,05,57,8.80
2017,05,26,05,58,8.90
2017,05,26,05,59,8.90
2017,05,26,06,00,8.90
2017,05,26,06,01,8.90
2017,05,26,06,02,9.00
2017,05,26,06,03,9.00
2017,05,26,06,04,9.10
2017,05,26,06,05,9.10
2017,05,26,06,06,9.20
2017,05,26,06,07,9.20
2017,05,26,06,08,9.20
2017,05,26,06,09,9.20
2017,05,26,06,10,9.20
2017,05,26,06,11,9.20
2017,05,26,06,12,9.20
2017,05,26,06,13,9.20
2017,05,26,06,14,9.20
2017,05,26,06,15,9.20
2017,05,26,06,16,9.30
2017,05,26,06,17,9.30
2017,05,26,06,18,9.40
2017,05,26,06,19,9.40
2017,05,26,06,20,9.50
2017,05,26,06,21,9.60
2017,05,26,06,22,9.60
2017,05,26,06,23,9.70
2017,05,26,06,24,9.70
2017,05,26,06,25,9.70
2017,05,26,06,26,9.80
2017,05,26,06,27,9.80
2017,05,26,06,28,9.90
2017,05,26,06,29,9.90
2017,05,26,06,30,9.90
2017,05,26,06,31,10.00
2017,05,26,06,32,10.10
2017,05,26,06,33,10.20
2017,05,26,06,34,10.30
2017,05,26,06,35,10.30
2017,05,26,06,36,10.40
2017,05,26,06,37,10.40
2017,05,26,06,38,10.50
2017,05,26,06,39,10.60
2017,05,26,06,40,10.60
2017,05,26,06,41,10.70
2017,05,26,06,42,10.80
2017,05,26,06,43,10.90
2017,05,26,06,44,10.90
2017,05,26,06,45,10.90
2017,05,26,06,46,10.90
2017,05,26,06,47,10.90
2017,05,26,06,48,10.90
2017,05,26,06,49,10.90
2017,05,26,06,50,10.90
2017,05,26,06,51,11.00
2017,05,26,06,52,11.10
2017,05,26,06,53,11.10
2017,05,26,06,54,11.10
2017,05,26,06,55,11.20
2017,05,26,06,56,11.20
2017,05,26,06,57,11.30
2017,05,26,06,58,11.30
2017,05,26,06,59,11.40
2017,05,26,07,00,11.50
2017,05,26,07,01,11.60
2017,05,26,07,02,11.80
2017,05,26,07,03,11.90
2017,05,26,07,04,12.10
2017,05,26,07,05,12.20
2017,05,26,07,06,12.40
2017,05,26,07,07,12.50
2017,05,26,07,08,12.70
2017,05,26,07,09,12.80
2017,05,26,07,10,12.90
2017,05,26,07,11,13.00
2017,05,26,07,12,13.10
2017,05,26,07,13,13.10
2017,05,26,07,14,13.10
2017,05,26,07,15,13.20
2017,05,26,07,16,13.20
2017,05,26,07,17,13.30
2017,05,26,07,18,13.30
2017,05,26,07,19,13.40
2017,05,26,07,20,13.60
2017,05,26,07,21,13.70
2017,05,26,07,22,13.70
2017,05,26,07,23,13.80
2017,05,26,07,24,13.90
2017,05,26,07,25,14.00
2017,05,26,07,26,14.10
2017,05,26,07,27,14.20
2017,05,26,07,28,14.20
2017,05,26,07,29,14.30
2017,05,26,07,30,14.40
2017,05,26,07,31,14.50
2017,05,26,07,32,14.50
2017,05,26,07,33,14.50
2017,05,26,07,34,14.50
2017,05,26,07,35,14.50
2017,05,26,07,36,14.50
2017,05,26,07,37,14.50
2017,05,26,07,38,14.50
2017,05,26,07,39,14.50
2017,05,26,07,40,14.50
2017,05,26,07,41,14.50
2017,05,26,07,42,14.60
2017,05,26,07,43,14.60
2017,05,26,07,44,14.70
2017,05,26,07,45,14.80
2017,05,26,07,46,14.80
2017,05,26,07,47,14.80
2017,05,26,07,48,14.90
2017,05,26,07,49,14.90
2017,05,26,07,50,14.90
2017,05,26,07,51,15.00
2017,05,26,07,52,15.00
2017,05,26,07,53,15.00
2017,05,26,07,54,15.10
2017,05,26,07,55,15.10
2017,05,26,07,56,15.20
2017,05,26,07,57,15.20
2017,05,26,07,58,15.30
2017,05,26,07,59,15.40
2017,05,26,08,00,15.50
2017,05,26,08,01,15.60
2017,05,26,08,02,15.60
2017,05,26,08,03,15.80
2017,05,26,08,04,15.90
2017,05,26,08,05,16.10
2017,05,26,08,06,16.10
2017,05,26,08,07,16.20
2017,05,26,08,08,16.20
2017,05,26,08,09,16.20
2017,05,26,08,10,16.20
2017,05,26,08,11,16.20
2017,05,26,08,12,16.20
2017,05,26,08,13,16.20
2017,05,26,08,14,16.30
2017,05,26,08,15,16.40
2017,05,26,08,16,16.40
2017,05,26,08,17,16.50
2017,05,26,08,18,16.60
2017,05,26,08,19,16.70
2017,05,26,08,20,16.80
2017,05,26,08,21,16.80
2017,05,26,08,22,16.90
2017,05,26,08,23,17.00
2017,05,26,08,24,17.10
2017,05,26,08,25,17.30
2017,05,26,08,26,17.30
2017,05,26,08,27,17.40
2017,05,26,08,28,17.50
2017,05,26,08,29,17.60
2017,05,26,08,30,17.70
2017,05,26,08,31,17.70
2017,05,26,08,32,17.80
2017,05,26,08,33,17.80
2017,05,26,08,34,17.80
2017,05,26,08,35,17.80
2017,05,26,08,36,17.80
2017,05,26,08,37,17.80
2017,05,26,08,38,17.80
2017,05,26,08,39,17.80
2017,05,26,08,40,17.90
2017,05,26,08,41,17.90
2017,05,26,08,42,17.90
2017,05,26,08,43,17.90
2017,05,26,08,44,18.00
2017,05,26,08,45,18.10
2017,05,26,08,46,18.10
2017,05,26,08,47,18.10
2017,05,26,08,48,18.10
2017,05,26,08,49,18.10
2017,05,26,08,50,18.10
2017,05,26,08,51,18.10
2017,05,26,08,52,18.10
2017,05,26,08,53,18.10
2017,05,26,08,54,18.10
2017,05,26,08,55,18.00
2017,05,26,08,56,17.90
2017,05,26,08,57,17.90
2017,05,26,08,58,17.90
2017,05,26,08,59,17.80
2017,05,26,09,00,17.80
2017,05,26,09,01,17.80
2017,05,26,09,02,17.70
2017,05,26,09,03,17.60
2017,05,26,09,04,17.50
2017,05,26,09,05,17.50
2017,05,26,09,06,17.50
2017,05,26,09,07,17.50
2017,05,26,09,08,17.50
2017,05,26,09,09,17.60
2017,05,26,09,10,17.50
2017,05,26,09,11,17.50
2017,05,26,09,12,17.50
2017,05,26,09,13,17.60
2017,05,26,09,14,17.60
2017,05,26,09,15,17.60
2017,05,26,09,16,17.60
2017,05,26,09,17,17.60
2017,05,26,09,18,17.70
2017,05,26,09,19,17.70
2017,05,26,09,20,17.80
2017,05,26,09,21,17.80
2017,05,26,09,22,17.90
2017,05,26,09,23,17.90
2017,05,26,09,24,17.90
2017,05,26,09,25,17.90
2017,05,26,09,26,17.90
2017,05,26,09,27,17.90
2017,05,26,09,28,17.90
2017,05,26,09,29,17.90
2017,05,26,09,30,17.90
2017,05,26,09,31,17.90
2017,05,26,09,32,18.00
2017,05,26,09,33,18.10
2017,05,26,09,34,18.10
2017,05,26,09,35,18.10
2017,05,26,09,36,18.10
2017,05,26,09,37,18.10
2017,05,26,09,38,18.20
2017,05,26,09,39,18.20
2017,05,26,09,40,18.20
2017,05,26,09,41,18.20
2017,05,26,09,42,18.20
2017,05,26,09,43,18.20
2017,05,26,09,44,18.20
2017,05,26,09,45,18.30
2017,05,26,09,46,18.20
2017,05,26,09,47,18.20
2017,05,26,09,48,18.20
2017,05,26,09,49,18.10
2017,05,26,09,50,18.00
2017,05,26,09,51,17.90
2017,05,26,09,52,17.70
2017,05,26,09,53,17.70
2017,05,26,09,54,17.60
2017,05,26,09,55,17.60
2017,05,26,09,56,17.60
2017,05,26,09,57,17.70
2017,05,26,09,58,17.80
2017,05,26,09,59,17.70
2017,05,26,10,00,17.60
2017,05,26,10,01,17.60
2017,05,26,10,02,17.60
2017,05,26,10,03,17.70
2017,05,26,10,04,17.70
2017,05,26,10,05,17.70
2017,05,26,10,06,17.60
2017,05,26,10,07,17.50
2017,05,26,10,08,17.50
2017,05,26,10,09,17.50
2017,05,26,10,10,17.50
2017,05,26,10,11,17.50
2017,05,26,10,12,17.50
2017,05,26,10,13,17.40
2017,05,26,10,14,17.40
2017,05,26,10,15,17.50
2017,05,26,10,16,17.50
2017,05,26,10,17,17.70
2017,05,26,10,18,17.80
2017,05,26,10,19,17.90
2017,05,26,10,20,18.00
2017,05,26,10,21,18.10
2017,05,26,10,22,18.20
2017,05,26,10,23,18.20
2017,05,26,10,24,18.20
2017,05,26,10,25,18.20
2017,05,26,10,26,18.20
2017,05,26,10,27,18.20
2017,05,26,10,28,18.20
2017,05,26,10,29,18.20
2017,05,26,10,30,18.20
2017,05,26,10,31,18.30
2017,05,26,10,32,18.30
2017,05,26,10,33,18.40
2017,05,26,10,34,18.50
2017,05,26,10,35,18.50
2017,05,26,10,36,18.50
2017,05,26,10,37,18.50
2017,05,26,10,38,18.50
2017,05,26,10,39,18.50
2017,05,26,10,40,18.50
2017,05,26,10,41,18.50
2017,05,26,10,42,18.50
2017,05,26,10,43,18.50
2017,05,26,10,44,18.50
2017,05,26,10,45,18.40
2017,05,26,10,46,18.30
2017,05,26,10,47,18.20
2017,05,26,10,48,18.20
2017,05,26,10,49,18.10
2017,05,26,10,50,17.90
2017,05,26,10,51,17.90
2017,05,26,10,52,17.90
2017,05,26,10,53,18.10
2017,05,26,10,54,18.10
2017,05,26,10,55,18.20
2017,05,26,10,56,18.20
2017,05,26,10,57,18.20
2017,05,26,10,58,18.40
2017,05,26,10,59,18.50
2017,05,26,11,00,18.50
2017,05,26,11,01,18.60
2017,05,26,11,02,18.60
2017,05,26,11,03,18.60
2017,05,26,11,04,18.70
2017,05,26,11,05,18.80
2017,05,26,11,06,18.90
2017,05,26,11,07,19.00
2017,05,26,11,08,19.10
2017,05,26,11,09,19.10
2017,05,26,11,10,19.10
2017,05,26,11,11,19.10
2017,05,26,11,12,19.10
2017,05,26,11,13,19.10
2017,05,26,11,14,19.00
2017,05,26,11,15,18.90
2017,05,26,11,16,18.90
2017,05,26,11,17,18.80
2017,05,26,11,18,18.80
2017,05,26,11,19,18.80
2017,05,26,11,20,18.80
2017,05,26,11,21,18.80
2017,05,26,11,22,18.80
2017,05,26,11,23,18.80
2017,05,26,11,24,18.80
2017,05,26,11,25,18.80
2017,05,26,11,26,18.80
2017,05,26,11,27,18.80
2017,05,26,11,28,18.80
2017,05,26,11,29,18.80
2017,05,26,11,30,18.80
2017,05,26,11,31,18.90
2017,05,26,11,32,19.00
2017,05,26,11,33,19.10
2017,05,26,11,34,19.20
2017,05,26,11,35,19.20
2017,05,26,11,36,19.20
2017,05,26,11,37,19.20
2017,05,26,11,38,19.20
2017,05,26,11,39,19.20
2017,05,26,11,40,19.30
2017,05,26,11,41,19.50
2017,05,26,11,42,19.60
2017,05,26,11,43,19.60
2017,05,26,11,44,19.50
2017,05,26,11,45,19.50
2017,05,26,11,46,19.50
2017,05,26,11,47,19.50
2017,05,26,11,48,19.40
2017,05,26,11,49,19.40
2017,05,26,11,50,19.40
2017,05,26,11,51,19.30
2017,05,26,11,52,19.20
2017,05,26,11,53,19.20
2017,05,26,11,54,19.20
2017,05,26,11,55,19.20
2017,05,26,11,56,19.20
2017,05,26,11,57,19.20
2017,05,26,11,58,19.10
2017,05,26,11,59,19.20
2017,05,26,12,00,19.20
2017,05,26,12,01,19.30
2017,05,26,12,02,19.50
2017,05,26,12,03,19.50
2017,05,26,12,04,19.50
2017,05,26,12,05,19.60
2017,05,26,12,06,19.60
2017,05,26,12,07,19.60
2017,05,26,12,08,19.50
2017,05,26,12,09,19.50
2017,05,26,12,10,19.50
2017,05,26,12,11,19.50
2017,05,26,12,12,19.60
2017,05,26,12,13,19.60
2017,05,26,12,14,19.60
2017,05,26,12,15,19.70
2017,05,26,12,16,19.80
2017,05,26,12,17,19.90
2017,05,26,12,18,20.00
2017,05,26,12,19,20.20
2017,05,26,12,20,20.20
2017,05,26,12,21,20.20
2017,05,26,12,22,20.20
2017,05,26,12,23,20.10
2017,05,26,12,24,20.00
2017,05,26,12,25,20.00
2017,05,26,12,26,20.10
2017,05,26,12,27,20.10
2017,05,26,12,28,20.10
2017,05,26,12,29,20.10
2017,05,26,12,30,20.20
2017,05,26,12,31,20.10
2017,05,26,12,32,20.10
2017,05,26,12,33,20.00
2017,05,26,12,34,19.90
2017,05,26,12,35,19.90
2017,05,26,12,36,19.90
2017,05,26,12,37,20.00
2017,05,26,12,38,20.10
2017,05,26,12,39,20.20
2017,05,26,12,40,20.20
2017,05,26,12,41,20.20
2017,05,26,12,42,20.20
2017,05,26,12,43,20.30
2017,05,26,12,44,20.40
2017,05,26,12,45,20.40
2017,05,26,12,46,20.30
2017,05,26,12,47,20.30
2017,05,26,12,48,20.40
2017,05,26,12,49,20.40
2017,05,26,12,50,20.30
2017,05,26,12,51,20.20
2017,05,26,12,52,20.20
2017,05,26,12,53,20.20
2017,05,26,12,54,20.20
2017,05,26,12,55,20.20
2017,05,26,12,56,20.20
2017,05,26,12,57,20.00
2017,05,26,12,58,19.90
2017,05,26,12,59,19.80
2017,05,26,13,00,19.60
2017,05,26,13,01,19.50
2017,05,26,13,02,19.40
2017,05,26,13,03,19.40
2017,05,26,13,04,19.30
2017,05,26,13,05,19.30
2017,05,26,13,06,19.30
2017,05,26,13,07,19.30
2017,05,26,13,08,19.10
2017,05,26,13,09,19.10
2017,05,26,13,10,19.00
2017,05,26,13,11,18.90
2017,05,26,13,12,18.90
2017,05,26,13,13,18.90
2017,05,26,13,14,18.90
2017,05,26,13,15,18.90
2017,05,26,13,16,19.00
2017,05,26,13,17,19.10
2017,05,26,13,18,19.20
2017,05,26,13,19,19.30
2017,05,26,13,20,19.30
2017,05,26,13,21,19.30
2017,05,26,13,22,19.30
2017,05,26,13,23,19.30
2017,05,26,13,24,19.40
2017,05,26,13,25,19.40
2017,05,26,13,26,19.50
2017,05,26,13,27,19.50
2017,05,26,13,28,19.50
2017,05,26,13,29,19.50
2017,05,26,13,30,19.60
2017,05,26,13,31,19.60
2017,05,26,13,32,19.70
2017,05,26,13,33,19.80
2017,05,26,13,34,19.80
2017,05,26,13,35,19.80
2017,05,26,13,36,19.80
2017,05,26,13,37,19.80
2017,05,26,13,38,19.90
2017,05,26,13,39,19.90
2017,05,26,13,40,19.90
2017,05,26,13,41,20.00
2017,05,26,13,42,20.10
2017,05,26,13,43,20.10
2017,05,26,13,44,20.20
2017,05,26,13,45,20.20
2017,05,26,13,46,20.10
2017,05,26,13,47,20.10
2017,05,26,13,48,20.20
2017,05,26,13,49,20.30
2017,05,26,13,50,20.30
2017,05,26,13,51,20.30
2017,05,26,13,52,20.30
2017,05,26,13,53,20.30
2017,05,26,13,54,20.30
2017,05,26,13,55,20.30
2017,05,26,13,56,20.20
2017,05,26,13,57,20.20
2017,05,26,13,58,20.20
2017,05,26,13,59,20.20
2017,05,26,14,00,20.20
2017,05,26,14,01,20.20
2017,05,26,14,02,20.20
2017,05,26,14,03,20.20
2017,05,26,14,04,20.30
2017,05,26,14,05,20.30
2017,05,26,14,06,20.40
2017,05,26,14,07,20.50
2017,05,26,14,08,20.60
2017,05,26,14,09,20.70
2017,05,26,14,10,20.80
2017,05,26,14,11,20.70
2017,05,26,14,12,20.60
2017,05,26,14,13,20.60
2017,05,26,14,14,20.50
2017,05,26,14,15,20.50
2017,05,26,14,16,20.40
2017,05,26,14,17,20.50
2017,05,26,14,18,20.50
2017,05,26,14,19,20.60
2017,05,26,14,20,20.50
2017,05,26,14,21,20.50
2017,05,26,14,22,20.50
2017,05,26,14,23,20.50
2017,05,26,14,24,20.60
2017,05,26,14,25,20.60
2017,05,26,14,26,20.60
2017,05,26,14,27,20.60
2017,05,26,14,28,20.60
2017,05,26,14,29,20.60
2017,05,26,14,30,20.60
2017,05,26,14,31,20.60
2017,05,26,14,32,20.60
2017,05,26,14,33,20.60
2017,05,26,14,34,20.60
2017,05,26,14,35,20.60
2017,05,26,14,36,20.70
2017,05,26,14,37,20.70
2017,05,26,14,38,20.80
2017,05,26,14,39,20.80
2017,05,26,14,40,20.80
2017,05,26,14,41,20.80
2017,05,26,14,42,20.80
2017,05,26,14,43,20.80
2017,05,26,14,44,20.70
2017,05,26,14,45,20.70
2017,05,26,14,46,20.80
2017,05,26,14,47,20.80
2017,05,26,14,48,20.90
2017,05,26,14,49,21.00
2017,05,26,14,50,21.10
2017,05,26,14,51,21.20
2017,05,26,14,52,21.10
2017,05,26,14,53,21.10
2017,05,26,14,54,21.10
2017,05,26,14,55,21.10
2017,05,26,14,56,21.00
2017,05,26,14,57,21.00
2017,05,26,14,58,20.90
2017,05,26,14,59,20.90
2017,05,26,15,00,20.90
2017,05,26,15,01,20.80
2017,05,26,15,02,20.80
2017,05,26,15,03,20.70
2017,05,26,15,04,20.60
2017,05,26,15,05,20.60
2017,05,26,15,06,20.70
2017,05,26,15,07,20.70
2017,05,26,15,08,20.70
2017,05,26,15,09,20.80
2017,05,26,15,10,20.70
2017,05,26,15,11,20.80
2017,05,26,15,12,20.90
2017,05,26,15,13,20.90
2017,05,26,15,14,21.00
2017,05,26,15,15,21.10
2017,05,26,15,16,21.20
2017,05,26,15,17,21.20
2017,05,26,15,18,21.20
2017,05,26,15,19,21.20
2017,05,26,15,20,21.30
2017,05,26,15,21,21.30
2017,05,26,15,22,21.30
2017,05,26,15,23,21.30
2017,05,26,15,24,21.30
2017,05,26,15,25,21.30
2017,05,26,15,26,21.30
2017,05,26,15,27,21.30
2017,05,26,15,28,21.30
2017,05,26,15,29,21.30
2017,05,26,15,30,21.30
2017,05,26,15,31,21.40
2017,05,26,15,32,21.50
2017,05,26,15,33,21.60
2017,05,26,15,34,21.60
2017,05,26,15,35,21.60
2017,05,26,15,36,21.60
2017,05,26,15,37,21.60
2017,05,26,15,38,21.60
2017,05,26,15,39,21.60
2017,05,26,15,40,21.60
2017,05,26,15,41,21.60
2017,05,26,15,42,21.70
2017,05,26,15,43,21.80
2017,05,26,15,44,21.90
2017,05,26,15,45,21.90
2017,05,26,15,46,21.90
2017,05,26,15,47,22.00
2017,05,26,15,48,22.00
2017,05,26,15,49,22.00
2017,05,26,15,50,21.90
2017,05,26,15,51,21.90
2017,05,26,15,52,21.80
2017,05,26,15,53,21.90
2017,05,26,15,54,21.80
2017,05,26,15,55,21.70
2017,05,26,15,56,21.70
2017,05,26,15,57,21.70
2017,05,26,15,58,21.80
2017,05,26,15,59,21.90
2017,05,26,16,00,21.90
2017,05,26,16,01,21.90
2017,05,26,16,02,21.90
2017,05,26,16,03,21.90
2017,05,26,16,04,22.00
2017,05,26,16,05,22.00
2017,05,26,16,06,22.00
2017,05,26,16,07,22.00
2017,05,26,16,08,22.00
2017,05,26,16,09,22.00
2017,05,26,16,10,22.00
2017,05,26,16,11,22.00
2017,05,26,16,12,22.00
2017,05,26,16,13,22.00
2017,05,26,16,14,21.90
2017,05,26,16,15,21.80
2017,05,26,16,16,21.70
2017,05,26,16,17,21.70
2017,05,26,16,18,21.80
2017,05,26,16,19,21.80
2017,05,26,16,20,21.80
2017,05,26,16,21,21.80
2017,05,26,16,22,21.80
2017,05,26,16,23,21.80
2017,05,26,16,24,21.80
2017,05,26,16,25,21.70
2017,05,26,16,26,21.60
2017,05,26,16,27,21.60
2017,05,26,16,28,21.60
2017,05,26,16,29,21.60
2017,05,26,16,30,21.70
2017,05,26,16,31,21.70
2017,05,26,16,32,21.70
2017,05,26,16,33,21.70
2017,05,26,16,34,21.70
2017,05,26,16,35,21.70
2017,05,26,16,36,21.80
2017,05,26,16,37,21.80
2017,05,26,16,38,21.80
2017,05,26,16,39,21.80
2017,05,26,16,40,21.90
2017,05,26,16,41,22.00
2017,05,26,16,42,22.00
2017,05,26,16,43,22.00
2017,05,26,16,44,22.00
2017,05,26,16,45,22.10
2017,05,26,16,46,22.10
2017,05,26,16,47,22.20
2017,05,26,16,48,22.30
2017,05,26,16,49,22.40
2017,05,26,16,50,22.60
2017,05,26,16,51,22.70
2017,05,26,16,52,22.80
2017,05,26,16,53,22.90
2017,05,26,16,54,22.90
2017,05,26,16,55,22.90
2017,05,26,16,56,23.00
2017,05,26,16,57,23.10
2017,05,26,16,58,23.10
2017,05,26,16,59,23.10
2017,05,26,17,00,23.10
2017,05,26,17,01,23.20
2017,05,26,17,02,23.30
2017,05,26,17,03,23.30
2017,05,26,17,04,23.40
2017,05,26,17,05,23.60
2017,05,26,17,06,23.70
2017,05,26,17,07,23.80
2017,05,26,17,08,23.90
2017,05,26,17,09,24.10
2017,05,26,17,10,24.20
2017,05,26,17,11,24.30
2017,05,26,17,12,24.50
2017,05,26,17,13,24.50
2017,05,26,17,14,24.60
2017,05,26,17,15,24.70
2017,05,26,17,16,24.90
2017,05,26,17,17,25.00
2017,05,26,17,18,25.10
2017,05,26,17,19,25.30
2017,05,26,17,20,25.30
2017,05,26,17,21,25.40
2017,05,26,17,22,25.50
2017,05,26,17,23,25.50
2017,05,26,17,24,25.60
2017,05,26,17,25,25.70
2017,05,26,17,26,25.70